Regional Weather Roundup
Issued by NWS Wakefield, VA

Home | Current Version | Previous Version | Graphics & Text | Print | Product List | Glossary On
Versions: 1 2 3 4 5 6 7 8 9 10 11 12 13 14 15 16 17 18 19 20 21 22 23 24 25 26 27
000
ASUS41 KAKQ 291815
RWRAKQ

REGIONAL WEATHER ROUNDUP
NATIONAL WEATHER SERVICE WAKEFIELD VA
200 PM EDT SUN MAY 29 2016

Note: "fair" indicates few or no clouds below 12,000 feet with no
significant weather and/or obstructions to visibility. * = Denotes
station may not report precipitation (e.g., rain,snow,etc.),
thunder or fog.

VAZ042-051-052>054-056-291900-
NORTHERN VIRGINIA

CITY           SKY/WX    TMP DP  RH WIND       PRES   REMARKS
WASH NATIONAL  NOT AVBL
DULLES         PTSUNNY   84  58  40 SE5       30.10F
FORT BELVOIR   FAIR      83  64  52 VRB3      30.10F
QUANTICO       PTSUNNY   81  69  67 SW5       30.11F
FREDERICKSBRG* FAIR      82  67  60 E7        30.09F
STAFFORD*      PTSUNNY   82  64  54 E6        30.14F
WARRENTON      FAIR      85  55  36 SW5       30.10F
CULPEPER*      FAIR      84  64  50 SE5       30.11F
MANASSAS*      MOSUNNY   84  64  51 SE12      30.10F
LEESBURG*      FAIR      86  63  45 S12G17    30.11F
WINCHESTER     FAIR      81  61  50 SE6       30.12S
FRONT ROYAL*   FAIR      81  64  57 CALM      30.11S
LURAY*         FAIR      79  61  53 SW3       30.13S
$$

VAZ048-049-060>072-079>083-291900-
CENTRAL AND SOUTH CENTRAL VIRGINIA

CITY           SKY/WX    TMP DP  RH WIND       PRES   REMARKS
RICHMOND       CLOUDY    79  69  71 SE7       30.09F
CHESTERFIELD*  MOCLDY    79  61  53 E5        30.11F
PETERSBURG*    CLOUDY    80  72  75 CALM      30.10F
HANOVER        LGT RAIN  81  68  64 CALM      30.11F
TAPPAHANNOCK*  FAIR      76  75  96 E3        30.12S
QUINTON*       CLOUDY    76  72  87 E7        30.10F
CHARLOTTSVILLE LGT RAIN  80  64  58 CALM      30.12F
GORDONSVILLE*  CLOUDY    81  64  56 SW3       30.11F
ORANGE*        CLOUDY    82  61  47 SW3       30.13S
LOUISA*        LGT RAIN  82  70  65 CALM      30.11S
BUMPASS*       MOCLDY    81  65  58 CALM      30.11F
FARMVILLE*     CLOUDY    77  72  85 CALM      30.11S
CREWE*         CLOUDY    76  74  94 CALM      30.11S
FORT PICKETT*  NOT AVBL
CHASE CITY*    CLOUDY    73  72  95 CALM      30.11S
CLARKSVILLE*   CLOUDY    68  68 100 CALM      30.11R
SOUTH HILL*    CLOUDY    75  73  95 CALM      30.15S
LAWRENCEVILLE* CLOUDY    76  73  91 CALM      30.09F
EMPORIA*       RAIN      75  72  88 E3        30.10S
$$

VAZ088>098-291900-
SOUTHEAST VIRGINIA

CITY           SKY/WX    TMP DP  RH WIND       PRES   REMARKS
NORFOLK        LGT RAIN  78  73  84 SE7       30.09F
VIRGINIA BEACH CLOUDY    82  72  71 SE8       30.09F
NORFOLK NAVAL  LGT RAIN  79  74  84 S6        30.10F
WEST POINT*    PTSUNNY   75  73  92 CALM      30.12F
SALUDA*        NOT AVBL
NEWPORT NEWS   PTSUNNY   76  74  93 E3        30.10F
LANGLEY AFB    PTSUNNY   77  74  91 E5        30.09F
FORT EUSTIS    FAIR      76  66  71 E5        30.08F
WILLIAMSBURG*  PTSUNNY   77  75  94 E5        30.11F
HR EXEC AP*      N/A     77  73  88 SE6       30.11F
FRANKLIN*      CLOUDY    75  72  91 SE5       30.09F
US460-WAKEFLD  LGT RAIN  74  72  93 CALM      30.09F
$$

VAZ020-022-025-037-045-291900-
WEST CENTRAL AND SOUTHWEST VIRGINIA

CITY           SKY/WX    TMP DP  RH WIND       PRES   REMARKS
STAUNTON*      LGT RAIN  74  64  70 SW5       30.17S
WAYNESBORO*    CLOUDY    73  63  69 W3        30.17S
HOT SPRINGS VA DRIZZLE   64  64  99 NE3       30.25F
LYNCHBURG      LGT RAIN  73  67  81 CALM      30.16S
DANVILLE       CLOUDY    74  68  81 N3        30.12S
SOUTH BOSTON*  CLOUDY    71  70  96 N3        30.11F
MARTINSVILLE   LGT RAIN  69  63  79 NE5       30.17S
ROANOKE        CLOUDY    77  62  59 VRB5      30.17F
BLACKSBURG     CLOUDY    71  61  70 E5        30.22F
DUBLIN*        CLOUDY    73  62  68 CALM      30.21S
MARION*        CLOUDY    72  60  65 CALM      30.23F
HILLSVILLE*    CLOUDY    69  58  68 E6        30.21S
RICHLANDS*     CLOUDY    74  64  70 CALM      30.21S
WISE*          FAIR      75  52  43 CALM      30.22F
ABINGDON*      FAIR      79  53  41 SE6       30.18S
$$

MDZ021>025-VAZ099-100-291900-
SOUTHERN MARYLAND AND THE DELMARVA PENINSULA

CITY           SKY/WX    TMP DP  RH WIND       PRES   REMARKS
PATUXENT RIVER PTSUNNY   78  69  73 SE10      30.11F
BAY BRIDGE APT PTSUNNY   81  68  65 W8        30.11F
LEONARDTOWN    PTSUNNY   79  68  69 E5        30.12F
DOVER          SUNNY     79  75  87 E15       30.11F
GEORGETOWN     PTSUNNY   83  70  64 S14       30.12F
EASTON         PTSUNNY   84  75  74 SW5       30.15F
CAMBRIDGE      PTSUNNY   79  68  69 S6        30.10F
SALISBURY      CLOUDY    82  71  69 SE14      30.11F
OCEAN CITY     PTSUNNY   75  70  84 S8        30.14F
WALLOPS ISLAND CLOUDY    75  72  90 SE8       30.14F
ACCOMACK*      CLOUDY    77  72  83 SE10G16   30.12F
$$

NCZ012>017-030>032-291900-
NORTH CENTRAL AND EASTERN NORTH CAROLINA

CITY           SKY/WX    TMP DP  RH WIND       PRES   REMARKS
ROANOKE RAPIDS RAIN      75  72  88 CALM      30.07F
RALEIGH        LGT RAIN  70  69  97 VRB5      30.08F
ELIZABETH CITY LGT RAIN  76  73  91 SE7       30.10F
AHOSKIE*       CLOUDY    74  73  96 SE7       30.08F
EDENTON*       DRIZZLE  N/A N/A N/A S3        30.10S
CURRITUCK*     CLOUDY    78  74  88 CALM      30.10F
KILL DEVIL HLS CLOUDY    82  71  67 SE10G16   30.09S
MANTEO         NOT AVBL
CAPE HATTERAS  MOSUNNY   85  74  69 S12       30.10F
TARBORO*       RAIN      75  73  93 CALM      30.08F
GOLDSBORO      NOT AVBL
WASHINGTON     CLOUDY    78  74  85 E6        30.07F
GREENVILLE     LGT RAIN  77  75  94 CALM      30.08F
NEW BERN       MOSUNNY   85  69  58 S14G23    30.07S
WILMINGTON     PTSUNNY   81  73  76 SE20G28   30.03F
$$

VAZ048-291900-
ELSEWHERE

CITY           SKY/WX    TMP DP  RH WIND       PRES   REMARKS
HARRISBURG PA  CLOUDY    86  62  44 S9        30.08F
BALTIMORE      CLOUDY    83  61  47 SE10      30.10F
ANNAPOLIS      MOSUNNY   76  68  76 SE10      30.11F
ANDREWS AFB    CLOUDY    81  66  60 E9        30.10F
PHILADELPHIA   PTSUNNY   86  49  27 S9        30.10F
HENDERSON NC   HVY RAIN  69  68  95 N8        30.09F
GREENSBORO     CLOUDY    73  65  75 NE8       30.11F
ROCKY MOUNT    CLOUDY    77  73  87 VRB5      30.06F
$$

VAZ100-291900-
MARINE

STATION/POSITION TIME  TEMP    WIND        PRES    WAVE   SWELL
                       AIR SEA DIR/SP/G            HT/PER HT/PER
                 (UTC) (F)     (DEG/KT/KT) (MB)    (FT/S) (FT/S)
BRANDYWINE LGT   1700   65     150/ 14/ 14 1020.8F
CAPE MAY NJ      1700   72 70  130/  9/ 12 1020.7F
LEWES DE         1700   73 66  160/ 11/ 13 1020.7F
15NM E FENWICK I 1750   68 66              1020.8F   3/ 7
OCEAN-CITY-INLET 1700   71 59  170/  5/  8 1021.3S
WACHAPREAGUE VA  1700   75 78  140/  6/  7 1020.1F
THOMAS POINT MD  1800   73 69  180/  6/  7 1020.9F
GOOSES REEF MD   1800   73 70  150/  6/  8 1020.5F   1
COVE POINT MD    1700   71     180/  6/  7 1020.8F
SOLOMONS ISLAND  1700   73 66   70/  8/ 10   N/A
BISHOPS HEAD MD  1700   77 76  160/  6/  7 1020.2F
PINEY POINT MD   1700          130/  8/  9   N/A
POTOMAC MD       1800   73 72  130/ 12/ 16 1018.7F   0
CAMBRIDGE MD     1700   81 67  220/  6/  9 1019.2F
LEWISETTA VA     1700   72 71  100/ 10/ 12 1019.3F
RAPPAHANNOCK LGT 1700          200/  3/  4 1020.7F
STINGRAY PT      1800   73 71  130/  4/  6 1019.8F   1
YORK RVR RNG VA  1700   72     120/ 12/ 14 1019.1F
YORKTOWN VA      1700   73 72  120/  7/  9 1019.5F
JAMESTOWN VA     1800   75 75  100/  6/  8   N/A     0
DOMINION TERM VA 1700   73      60/  4/  5 1019.7F
KIPTOPEKE VA     1700      71  140/ 12/ 13   N/A
CHES BAY BRIDGE  1700   73 69  110/  5/  9 1019.7F
CAPE HENRY VA    1700   72     140/ 10/ 15   N/A
CHESAPEAKE LGHT  1700   71     130/ 15/ 16 1020.5F
WILLOUBY STN VA  1700   76     150/  8/ 10 1020.6F
CAPE HENRY BUOY  1712      70                N/A     3/ 8
1ST LANDING BUOY 1800   71 70  130/  8/ 10 1019.2F   2/ 4
CAPE CHARLES BUO 1726      69                N/A     3/ 8   2/ 8
OFFSHORE WE BUOY 1721      71                N/A     4/ 8   3/ 8
64NM E OF VA BCH 1750   69 66  160/ 10/ 10 1019.8F   4/ 8   3/ 8
DUCK PIER NC     1700   73 62  130/ 11/ 12 1018.8F
44100 DUCK FRF   1724      71                N/A     4/ 8
44056 DUCK FRF   1711      68                N/A     3/ 5
OREGON INLET NC  1700   79 72  110/  9/ 13 1019.4F
HATTERAS NC      1700   77 76  140/ 10/ 15 1019.0F
DIAMOND SHLS NC  1750   79 76  160/ 17/ 19 1018.7F   6/ 8   2/16
CAPE LOOKOUT NC1F1C2F2C3F3C4F4C5F5C6F6C7F7C8M1C9!



USA.gov is the U.S. government's official web portal to all federal, state and local government web resources and services.